Hourly Data Report for May 02, 2021

TORONTO CITY
ONTARIO
Current Station Operator: ECCC - MSC

43°40'00.000" N
79°24'00.000" W
112.50 m
6158355
71508
XTO

Download Data

Hourly Data (May 2021)
Hourly Data Report for May 2, 2021
TIME
LST
Temp Definition
°C
Dew Point Definition
°C
Rel Hum Definition
%
Precip. Amount Definition
mm

Wind Dir Definition
10's deg

Wind Spd Definition
km/h
Visibility Definition
km
Stn Press Definition
kPa
Hmdx Definition


Wind Chill Definition


Weather Definition


00:00 10.1 1.9 57 0.0       99.03     LegendNANA
01:00 9.7 2.4 60 0.0       98.95     LegendNANA
02:00 10.2 2.9 60 0.0       98.90     LegendNANA
03:00 9.3 3.3 66 0.0       98.90     LegendNANA
04:00 10.0 4.4 68 0.0       98.96     LegendNANA
05:00 10.8 4.5 65 0.0       99.03     LegendNANA
06:00 10.7 5.0 68 0.0       99.15     LegendNANA
07:00 11.7 4.7 62 0.1       99.20     LegendNANA
08:00 12.4 3.2 53 0.0       99.32     LegendNANA
09:00 13.0 3.5 53 0.0       99.36     LegendNANA
10:00 14.5 3.9 49 0.0       99.35     LegendNANA
11:00 15.7 3.3 43 0.0       99.38     LegendNANA
12:00 15.8 1.9 39 0.0       99.41     LegendNANA
13:00 15.8 1.5 38 0.0       99.40     LegendNANA
14:00 13.9 3.5 50 0.0       99.43     LegendNANA
15:00 14.6 4.2 50 0.0       99.42     LegendNANA
16:00 15.2 4.5 49 0.0       99.42     LegendNANA
17:00 15.0 3.7 47 0.0       99.47     LegendNANA
18:00 14.5 4.0 49 0.0       99.44     LegendNANA
19:00 13.5 5.4 58 0.0       99.45     LegendNANA
20:00 13.1 5.7 61 0.0       99.50     LegendNANA
21:00 12.7 6.0 63 0.0       99.54     LegendNANA
22:00 11.3 5.7 68 0.0       99.57     LegendNANA
23:00 9.2 5.4 77 0.0       99.59     LegendNANA

Notes on Data Quality.

Legend

  • E = Estimated
  • M = Missing
  • NA = Not Available*
  • [empty] = Indicates an unobserved value
Date modified: